| time (UTC) | temp F | wind direction | speed MPH | gust MPH | rain 1hr in | rain 24hr in | rain mn in | humidity % | barometer mb |
| 20260505041434 | 53 | 194 | 0.0 | 0.0 | 0.00 | 0.00 | 0.00 | 72 | 1010.4 |
| 20260505040342 | 53 | 194 | 0.0 | 0.0 | 0.00 | 0.00 | 0.00 | 71 | 1010.4 |
| 20260505040109 | 53 | 194 | 0.0 | 0.0 | 0.00 | 0.00 | 0.00 | 71 | 1010.3 |
| 20260505035341 | 53 | 194 | 0.0 | 0.0 | 0.00 | 0.00 | 0.00 | 71 | 1010.4 |
| 20260505035110 | 53 | 194 | 0.0 | 0.0 | 0.00 | 0.00 | 0.00 | 71 | 1010.3 |
| 20260505034832 | 53 | 194 | 0.0 | 0.0 | 0.00 | 0.00 | 0.00 | 71 | 1010.4 |
| 20260505034506 | 53 | 194 | 0.0 | 0.0 | 0.00 | 0.00 | 0.00 | 70 | 1010.5 |
| 20260505033341 | 53 | 194 | 0.0 | 0.0 | 0.00 | 0.00 | 0.00 | 70 | 1010.5 |
| 20260505033107 | 53 | 194 | 0.0 | 0.0 | 0.00 | 0.00 | 0.00 | 69 | 1010.6 |
| 20260505032342 | 54 | 194 | 0.0 | 0.0 | 0.00 | 0.00 | 0.00 | 69 | 1010.5 |
| 20260505031843 | 54 | 194 | 0.0 | 0.0 | 0.00 | 0.00 | 0.00 | 68 | 1010.5 |
| 20260505031337 | 54 | 194 | 0.0 | 0.0 | 0.00 | 0.00 | 0.00 | 67 | 1010.6 |
| 20260505030831 | 55 | 194 | 0.0 | 0.0 | 0.00 | 0.00 | 0.00 | 66 | 1010.5 |
| 20260505030321 | 55 | 194 | 0.0 | 0.0 | 0.00 | 0.00 | 0.00 | 66 | 1010.5 |
| 20260505025815 | 55 | 194 | 0.0 | 0.0 | 0.00 | 0.00 | 0.00 | 66 | 1010.6 |
| 20260505025309 | 56 | 194 | 0.0 | 0.0 | 0.00 | 0.00 | 0.00 | 66 | 1010.6 |
| 20260505024759 | 56 | 194 | 0.0 | 0.0 | 0.00 | 0.00 | 0.00 | 65 | 1010.6 |
| 20260505024253 | 56 | 194 | 0.0 | 0.0 | 0.00 | 0.00 | 0.00 | 65 | 1010.6 |
| 20260505023747 | 56 | 194 | 0.0 | 0.0 | 0.00 | 0.00 | 0.00 | 65 | 1010.6 |
| 20260505023236 | 56 | 194 | 0.0 | 0.0 | 0.00 | 0.00 | 0.00 | 64 | 1010.7 |
| 20260505022731 | 57 | 194 | 0.0 | 0.0 | 0.00 | 0.00 | 0.00 | 63 | 1010.6 |
| 20260505022225 | 57 | 194 | 0.0 | 0.0 | 0.00 | 0.00 | 0.00 | 63 | 1010.6 |
| 20260505021714 | 57 | 194 | 0.0 | 0.0 | 0.00 | 0.00 | 0.00 | 63 | 1010.6 |
| 20260505021210 | 57 | 194 | 0.0 | 0.0 | 0.00 | 0.00 | 0.00 | 62 | 1010.6 |
| 20260505020702 | 57 | 194 | 0.0 | 0.0 | 0.00 | 0.00 | 0.00 | 61 | 1010.7 |
| 20260505020153 | 58 | 194 | 0.0 | 0.0 | 0.00 | 0.00 | 0.00 | 60 | 1010.7 |
| 20260505015647 | 58 | 194 | 0.0 | 0.0 | 0.00 | 0.00 | 0.00 | 59 | 1010.7 |
| 20260505015141 | 59 | 194 | 0.0 | 0.0 | 0.00 | 0.00 | 0.00 | 59 | 1010.5 |
| 20260505014859 | 59 | 194 | 0.0 | 0.0 | 0.00 | 0.00 | 0.00 | 59 | 1010.5 |
| 20260505014125 | 59 | 194 | 0.0 | 0.0 | 0.00 | 0.00 | 0.00 | 58 | 1010.5 |
| 20260505013619 | 60 | 194 | 0.0 | 0.0 | 0.00 | 0.00 | 0.00 | 58 | 1010.4 |
| 20260505013109 | 60 | 194 | 0.0 | 0.0 | 0.00 | 0.00 | 0.00 | 57 | 1010.5 |
| 20260505012603 | 60 | 194 | 0.0 | 0.0 | 0.00 | 0.00 | 0.00 | 55 | 1010.4 |
| 20260505012057 | 61 | 194 | 0.0 | 0.0 | 0.00 | 0.00 | 0.00 | 55 | 1010.3 |
| 20260505011547 | 61 | 194 | 0.0 | 0.0 | 0.00 | 0.00 | 0.00 | 54 | 1010.2 |
| 20260505011042 | 62 | 194 | 0.0 | 0.0 | 0.00 | 0.00 | 0.00 | 53 | 1010.2 |
| 20260505010535 | 62 | 194 | 0.0 | 0.0 | 0.00 | 0.00 | 0.00 | 53 | 1010.1 |
| 20260505010025 | 63 | 194 | 0.0 | 0.0 | 0.00 | 0.00 | 0.00 | 52 | 1010.0 |
| 20260505005518 | 63 | 194 | 0.0 | 0.0 | 0.00 | 0.00 | 0.00 | 51 | 1010.1 |
| 20260505005021 | 63 | 192 | 0.0 | 0.0 | 0.00 | 0.00 | 0.00 | 50 | 1009.9 |
| 20260505004503 | 64 | 192 | 0.0 | 1.0 | 0.00 | 0.00 | 0.00 | 50 | 1009.8 |
| 20260505003957 | 64 | 192 | 0.0 | 1.0 | 0.00 | 0.00 | 0.00 | 49 | 1009.8 |
| 20260505003451 | 65 | 192 | 0.0 | 1.0 | 0.00 | 0.00 | 0.00 | 48 | 1009.6 |
| 20260505002941 | 65 | 193 | 0.0 | 3.0 | 0.00 | 0.00 | 0.00 | 48 | 1009.7 |
| 20260505002435 | 65 | 199 | 0.0 | 3.0 | 0.00 | 0.00 | 0.00 | 47 | 1009.6 |
| 20260505002153 | 65 | 199 | 1.0 | 4.0 | 0.00 | 0.00 | 0.00 | 46 | 1009.4 |
| 20260505001419 | 66 | 229 | 0.0 | 4.0 | 0.00 | 0.00 | 0.00 | 47 | 1009.3 |
| 20260505000913 | 66 | 249 | 0.0 | 4.0 | 0.00 | 0.00 | 0.00 | 46 | 1009.4 |
| 20260505000407 | 67 | 45 | 1.0 | 4.0 | 0.00 | 0.00 | 0.00 | 45 | 1009.2 |
| 20260504235857 | 67 | 244 | 1.0 | 4.0 | 0.00 | 0.00 | 0.00 | 44 | 1009.1 |
| 20260504235351 | 67 | 182 | 1.0 | 3.0 | 0.00 | 0.00 | 0.00 | 44 | 1009.1 |
| 20260504235305 | 68 | 163 | 1.0 | 7.0 | 0.00 | 0.00 | 0.00 | 43 | 1008.9 |
| 20260504234934 | 68 | 163 | 1.0 | 4.0 | 0.00 | 0.00 | 0.00 | 44 | 1009.0 |
| 20260504233830 | 69 | 211 | 1.0 | 7.0 | 0.00 | 0.00 | 0.00 | 42 | 1008.9 |
| 20260504233324 | 69 | 74 | 1.0 | 7.0 | 0.00 | 0.00 | 0.00 | 42 | 1008.8 |
| 20260504232813 | 69 | 201 | 1.0 | 7.0 | 0.00 | 0.00 | 0.00 | 42 | 1008.8 |
| 20260504232307 | 69 | 84 | 1.0 | 4.0 | 0.00 | 0.00 | 0.00 | 42 | 1008.8 |
| 20260504232248 | 69 | 32 | 1.0 | 4.0 | 0.00 | 0.00 | 0.00 | 42 | 1008.7 |
| 20260504231251 | 70 | 5 | 1.0 | 6.0 | 0.00 | 0.00 | 0.00 | 41 | 1008.6 |
| 20260504231023 | 70 | 307 | 1.0 | 6.0 | 0.00 | 0.00 | 0.00 | 41 | 1008.6 |
| 20260504230238 | 70 | 222 | 1.0 | 6.0 | 0.00 | 0.00 | 0.00 | 40 | 1008.5 |
| 20260504225729 | 70 | 211 | 2.0 | 6.0 | 0.00 | 0.00 | 0.00 | 40 | 1008.6 |
| 20260504225223 | 70 | 148 | 2.0 | 9.0 | 0.00 | 0.00 | 0.00 | 40 | 1008.5 |
| 20260504224718 | 70 | 36 | 1.0 | 9.0 | 0.00 | 0.00 | 0.00 | 40 | 1008.5 |
| 20260504224209 | 70 | 175 | 2.0 | 9.0 | 0.00 | 0.00 | 0.00 | 39 | 1008.6 |
| 20260504223701 | 70 | 109 | 2.0 | 9.0 | 0.00 | 0.00 | 0.00 | 39 | 1008.5 |
| 20260504223155 | 70 | 145 | 2.0 | 9.0 | 0.00 | 0.00 | 0.00 | 40 | 1008.5 |
| 20260504222646 | 71 | 259 | 2.0 | 9.0 | 0.00 | 0.00 | 0.00 | 39 | 1008.6 |
| 20260504222151 | 71 | 38 | 2.0 | 10.0 | 0.00 | 0.00 | 0.00 | 39 | 1008.6 |
| 20260504222125 | 71 | 204 | 2.0 | 10.0 | 0.00 | 0.00 | 0.00 | 38 | 1008.6 |
| 20260504221122 | 71 | 123 | 2.0 | 9.0 | 0.00 | 0.00 | 0.00 | 38 | 1008.6 |
| 20260504220616 | 71 | 211 | 2.0 | 7.0 | 0.00 | 0.00 | 0.00 | 39 | 1008.6 |
| 20260504220111 | 71 | 221 | 2.0 | 10.0 | 0.00 | 0.00 | 0.00 | 38 | 1008.7 |
| 20260504215600 | 71 | 209 | 2.0 | 10.0 | 0.00 | 0.00 | 0.00 | 38 | 1008.7 |
| 20260504215100 | 71 | 36 | 2.0 | 10.0 | 0.00 | 0.00 | 0.00 | 38 | 1008.7 |
| 20260504214816 | 71 | 66 | 2.0 | 10.0 | 0.00 | 0.00 | 0.00 | 38 | 1008.7 |
| 20260504214101 | 71 | 121 | 2.0 | 8.0 | 0.00 | 0.00 | 0.00 | 38 | 1008.7 |
| 20260504213557 | 71 | 29 | 2.0 | 9.0 | 0.00 | 0.00 | 0.00 | 38 | 1008.8 |
| 20260504213055 | 71 | 274 | 2.0 | 9.0 | 0.00 | 0.00 | 0.00 | 38 | 1008.8 |
| 20260504212817 | 71 | 96 | 2.0 | 9.0 | 0.00 | 0.00 | 0.00 | 39 | 1008.9 |
| 20260504212319 | 71 | 209 | 2.0 | 9.0 | 0.00 | 0.00 | 0.00 | 37 | 1008.9 |
| 20260504211555 | 72 | 72 | 2.0 | 11.0 | 0.00 | 0.00 | 0.00 | 38 | 1008.9 |
| 20260504211054 | 72 | 76 | 2.0 | 11.0 | 0.00 | 0.00 | 0.00 | 37 | 1009.0 |
| 20260504210819 | 72 | 240 | 2.0 | 10.0 | 0.00 | 0.00 | 0.00 | 39 | 1009.1 |
| 20260504210335 | 71 | 28 | 2.0 | 10.0 | 0.00 | 0.00 | 0.00 | 38 | 1009.1 |
| 20260504205552 | 71 | 177 | 2.0 | 10.0 | 0.00 | 0.00 | 0.00 | 38 | 1009.0 |
| 20260504205053 | 71 | 141 | 2.0 | 10.0 | 0.00 | 0.00 | 0.00 | 38 | 1009.1 |
| 20260504204601 | 71 | 173 | 2.0 | 10.0 | 0.00 | 0.00 | 0.00 | 36 | 1008.9 |
| 20260504204553 | 71 | 272 | 2.0 | 8.0 | 0.00 | 0.00 | 0.00 | 37 | 1008.9 |
| 20260504203552 | 72 | 194 | 2.0 | 10.0 | 0.00 | 0.00 | 0.00 | 37 | 1009.0 |
| 20260504203311 | 72 | 213 | 2.0 | 10.0 | 0.00 | 0.00 | 0.00 | 36 | 1008.9 |
| 20260504202550 | 72 | 200 | 2.0 | 10.0 | 0.00 | 0.00 | 0.00 | 37 | 1008.9 |
| 20260504202310 | 71 | 68 | 2.0 | 8.0 | 0.00 | 0.00 | 0.00 | 37 | 1009.0 |
| 20260504201811 | 72 | 38 | 2.0 | 8.0 | 0.00 | 0.00 | 0.00 | 36 | 1009.0 |
| 20260504201049 | 72 | 65 | 2.0 | 10.0 | 0.00 | 0.00 | 0.00 | 36 | 1009.1 |
| 20260504200549 | 72 | 63 | 3.0 | 10.0 | 0.00 | 0.00 | 0.00 | 35 | 1009.1 |
| 20260504195550 | 72 | 31 | 3.0 | 11.0 | 0.00 | 0.00 | 0.00 | 35 | 1009.0 |
| 20260504195310 | 72 | 126 | 3.0 | 11.0 | 0.00 | 0.00 | 0.00 | 36 | 1009.0 |
| 20260504194549 | 72 | 62 | 2.0 | 10.0 | 0.00 | 0.00 | 0.00 | 35 | 1009.2 |
| 20260504194304 | 72 | 73 | 2.0 | 10.0 | 0.00 | 0.00 | 0.00 | 37 | 1009.1 |
| 20260504193549 | 73 | 113 | 2.0 | 11.0 | 0.00 | 0.00 | 0.00 | 36 | 1009.2 |
| 20260504193050 | 73 | 82 | 2.0 | 11.0 | 0.00 | 0.00 | 0.00 | 35 | 1009.4 |
| 20260504192551 | 73 | 259 | 3.0 | 11.0 | 0.00 | 0.00 | 0.00 | 36 | 1009.3 |
| 20260504192048 | 73 | 239 | 3.0 | 11.0 | 0.00 | 0.00 | 0.00 | 37 | 1009.3 |
| 20260504191548 | 73 | 231 | 3.0 | 11.0 | 0.00 | 0.00 | 0.00 | 34 | 1009.2 |
| 20260504191049 | 73 | 183 | 2.0 | 11.0 | 0.00 | 0.00 | 0.00 | 35 | 1009.4 |
| 20260504190548 | 73 | 48 | 2.0 | 7.0 | 0.00 | 0.00 | 0.00 | 38 | 1009.5 |
| 20260504190048 | 73 | 86 | 2.0 | 7.0 | 0.00 | 0.00 | 0.00 | 38 | 1009.6 |
| 20260504185548 | 72 | 42 | 2.0 | 10.0 | 0.00 | 0.00 | 0.00 | 38 | 1009.5 |
| 20260504185051 | 72 | 53 | 3.0 | 10.0 | 0.00 | 0.00 | 0.00 | 36 | 1009.5 |
| 20260504184550 | 72 | 68 | 3.0 | 11.0 | 0.00 | 0.00 | 0.00 | 38 | 1009.6 |
| 20260504184047 | 73 | 55 | 3.0 | 11.0 | 0.00 | 0.00 | 0.00 | 36 | 1009.7 |
| 20260504183913 | 73 | 202 | 3.0 | 10.0 | 0.00 | 0.00 | 0.00 | 38 | 1010.0 |
| 20260504183830 | 72 | 24 | 3.0 | 11.0 | 0.00 | 0.00 | 0.00 | 38 | 1009.9 |
| 20260504182547 | 72 | 34 | 3.0 | 11.0 | 0.00 | 0.00 | 0.00 | 39 | 1010.0 |
| 20260504182046 | 72 | 170 | 3.0 | 11.0 | 0.00 | 0.00 | 0.00 | 37 | 1009.9 |
| 20260504181548 | 72 | 232 | 2.0 | 11.0 | 0.00 | 0.00 | 0.00 | 39 | 1010.0 |
| 20260504181047 | 72 | 204 | 2.0 | 8.0 | 0.00 | 0.00 | 0.00 | 42 | 1010.1 |
| 20260504180547 | 72 | 34 | 2.0 | 10.0 | 0.00 | 0.00 | 0.00 | 39 | 1010.2 |
| 20260504180046 | 72 | 32 | 2.0 | 10.0 | 0.00 | 0.00 | 0.00 | 39 | 1010.2 |
| 20260504175546 | 71 | 32 | 2.0 | 10.0 | 0.00 | 0.00 | 0.00 | 38 | 1010.2 |
| 20260504175310 | 71 | 60 | 2.0 | 10.0 | 0.00 | 0.00 | 0.00 | 37 | 1010.2 |
| 20260504174544 | 71 | 75 | 2.0 | 9.0 | 0.00 | 0.00 | 0.00 | 39 | 1010.3 |
| 20260504174042 | 71 | 106 | 3.0 | 10.0 | 0.00 | 0.00 | 0.00 | 38 | 1010.5 |
| 20260504173543 | 71 | 58 | 3.0 | 10.0 | 0.00 | 0.00 | 0.00 | 38 | 1010.6 |
| 20260504173041 | 71 | 211 | 2.0 | 9.0 | 0.00 | 0.00 | 0.00 | 43 | 1010.6 |
| 20260504172749 | 71 | 28 | 3.0 | 9.0 | 0.00 | 0.00 | 0.00 | 41 | 1010.8 |
| 20260504172639 | 71 | 291 | 3.0 | 9.0 | 0.00 | 0.00 | 0.00 | 38 | 1010.8 |
| 20260504172210 | 71 | 192 | 2.0 | 9.0 | 0.00 | 0.00 | 0.00 | 37 | 1010.8 |
| 20260504171038 | 71 | 99 | 3.0 | 10.0 | 0.00 | 0.00 | 0.00 | 40 | 1010.8 |
| 20260504170807 | 71 | 231 | 3.0 | 10.0 | 0.00 | 0.00 | 0.00 | 38 | 1010.9 |
| 20260504170305 | 70 | 108 | 2.0 | 9.0 | 0.00 | 0.00 | 0.00 | 39 | 1011.0 |
| 20260504151011 | 67 | 130 | 2.0 | 10.0 | 0.00 | 0.00 | 0.00 | 41 | 1012.3 |
| 20260504150505 | 67 | 188 | 2.0 | 10.0 | 0.00 | 0.00 | 0.00 | 42 | 1012.3 |
| 20260504140844 | 64 | 33 | 2.0 | 6.0 | 0.00 | 0.00 | 0.00 | 42 | 1012.7 |
| 20260504140338 | 64 | 128 | 2.0 | 6.0 | 0.00 | 0.00 | 0.00 | 43 | 1012.8 |
| 20260504130545 | 59 | 134 | 2.0 | 7.0 | 0.00 | 0.00 | 0.00 | 48 | 1013.1 |
| 20260504120319 | 51 | 221 | 1.0 | 6.0 | 0.00 | 0.00 | 0.00 | 60 | 1013.6 |
| 20260504110313 | 43 | 239 | 0.0 | 3.0 | 0.00 | 0.00 | 0.00 | 73 | 1013.6 |
| 20260504100253 | 43 | 50 | 0.0 | 4.0 | 0.00 | 0.00 | 0.00 | 70 | 1013.4 |
| 20260504081646 | 44 | 210 | 0.0 | 1.0 | 0.00 | 0.00 | 0.00 | 68 | 1013.1 |
| 20260504081407 | 44 | 210 | 0.0 | 1.0 | 0.00 | 0.00 | 0.00 | 69 | 1013.0 |
| 20260504080645 | 44 | 210 | 0.0 | 1.0 | 0.00 | 0.00 | 0.00 | 68 | 1013.0 |
| 20260504080158 | 44 | 210 | 0.0 | 1.0 | 0.00 | 0.00 | 0.00 | 69 | 1013.0 |
| 20260504070145 | 44 | 210 | 0.0 | 0.0 | 0.00 | 0.00 | 0.00 | 69 | 1012.8 |
| 20260504060134 | 44 | 210 | 0.0 | 2.0 | 0.00 | 0.00 | 0.00 | 69 | 1012.8 |
| 20260504050127 | 44 | 210 | 0.0 | 0.0 | 0.00 | 0.00 | 0.00 | 71 | 1012.6 |